Location: Bílinka
(49.3579°N, 14.3767°E)
Time: 01:21:24
(UTC+00:00)

Cosmos 2227 - Pass Details

Date: 28 January 2023
Orbit: 833 x 862 km, 71.0° (Epoch: 31 March)

Event Time Altitude Azimuth Distance (km) Brightness Sun altitude
Rises 17:28:38 0° 332° (NNW) 3,447 7.6 -15.8°
Reaches altitude 10° 17:31:07 10° 335° (NNW) 2,509 6.9 -16.2°
Maximum altitude 17:36:53 70° 59° (ENE) 920 4.2 -17.1°
Drops below altitude 10° 17:42:38 10° 143° (SE) 2,497 6.4 -18.0°
Enters shadow 17:44:01 - 145° (SE) 3,019 6.8 -18.2°
